AFR7501 LFLL-LFBO

Flight info

Callsign AFR7501
Flight time 0h 51m
Altitude 27000
Route REPSI DCT LERGA DCT MINSO DCT NARAK
Aircraft A320/M-SDE3FGHIRWY/LB1

Departure

Time 2026-05-05 21:23
Airport Lyon Saint-Exupéry Airport (LFLL)

Arrival

Time 2026-05-05 22:14
Airport Toulouse-Blagnac Airport (LFBO)
Time Latitude Longitude Altitude Speed Heading
2026-05-05 20:47 45.71781 5.08014 796 ft 0 kts 248°
2026-05-05 21:08 45.71785 5.08026 796 ft 4 kts 271°
2026-05-05 21:08 45.71775 5.08046 796 ft 4 kts 335°
2026-05-05 21:08 45.71765 5.08052 796 ft 0 kts 338°
2026-05-05 21:14 45.71766 5.08052 796 ft 1 kts 338°
2026-05-05 21:14 45.71773 5.08063 796 ft 3 kts 45°
2026-05-05 21:14 45.71803 5.08100 795 ft 8 kts 36°
2026-05-05 21:14 45.71861 5.08172 795 ft 14 kts 42°
2026-05-05 21:15 45.71932 5.08229 794 ft 9 kts 21°
2026-05-05 21:15 45.71961 5.08307 794 ft 10 kts 89°
2026-05-05 21:15 45.71956 5.08410 794 ft 11 kts 73°
2026-05-05 21:15 45.72021 5.08450 794 ft 12 kts 353°
2026-05-05 21:16 45.72116 5.08438 792 ft 15 kts 355°
2026-05-05 21:16 45.72232 5.08424 791 ft 18 kts 355°
2026-05-05 21:16 45.72371 5.08406 789 ft 22 kts 355°
2026-05-05 21:16 45.72530 5.08386 787 ft 24 kts 355°
2026-05-05 21:17 45.72707 5.08363 785 ft 27 kts 354°
2026-05-05 21:17 45.72902 5.08336 783 ft 29 kts 355°
2026-05-05 21:17 45.73114 5.08314 780 ft 32 kts 356°
2026-05-05 21:17 45.73339 5.08289 777 ft 33 kts 355°
2026-05-05 21:18 45.73577 5.08260 775 ft 35 kts 355°
2026-05-05 21:18 45.73799 5.08231 773 ft 22 kts 354°
2026-05-05 21:18 45.73961 5.08213 772 ft 25 kts 355°
2026-05-05 21:18 45.74135 5.08250 771 ft 27 kts 14°
2026-05-05 21:19 45.74323 5.08315 769 ft 29 kts 14°
2026-05-05 21:19 45.74480 5.08366 767 ft 16 kts 13°
2026-05-05 21:19 45.74584 5.08401 766 ft 10 kts 15°
2026-05-05 21:19 45.74612 5.08423 766 ft 0 kts 41°
2026-05-05 21:21 45.74621 5.08435 766 ft 4 kts 47°
2026-05-05 21:21 45.74637 5.08480 766 ft 7 kts 72°
2026-05-05 21:21 45.74632 5.08567 767 ft 11 kts 117°
2026-05-05 21:21 45.74572 5.08605 768 ft 0 kts 173°
2026-05-05 21:22 45.74370 5.08629 771 ft 64 kts 174°
2026-05-05 21:22 45.73721 5.08708 773 ft 120 kts 175°
2026-05-05 21:22 45.72737 5.08831 788 ft 163 kts 176°
2026-05-05 21:23 45.71602 5.08994 1349 ft 160 kts 174°
2026-05-05 21:23 45.70465 5.09145 1835 ft 169 kts 176°
2026-05-05 21:23 45.69217 5.09289 2108 ft 191 kts 176°
2026-05-05 21:23 45.67795 5.09452 2381 ft 214 kts 176°
2026-05-05 21:24 45.66245 5.09633 2743 ft 236 kts 175°
2026-05-05 21:24 45.64565 5.09830 3531 ft 241 kts 175°
2026-05-05 21:24 45.62903 5.10011 4370 ft 244 kts 179°
2026-05-05 21:24 45.61219 5.09463 4924 ft 261 kts 213°
2026-05-05 21:25 45.60022 5.07507 5618 ft 269 kts 249°
2026-05-05 21:25 45.59808 5.04866 6427 ft 273 kts 278°
2026-05-05 21:25 45.60007 5.02160 7285 ft 277 kts 267°
2026-05-05 21:25 45.59625 4.99460 8108 ft 280 kts 251°
2026-05-05 21:26 45.58870 4.96881 8942 ft 283 kts 244°
2026-05-05 21:26 45.57965 4.94371 9749 ft 286 kts 242°
2026-05-05 21:26 45.57010 4.91841 10387 ft 297 kts 242°
2026-05-05 21:26 45.56017 4.89129 10610 ft 320 kts 246°
2026-05-05 21:27 45.55485 4.85953 10770 ft 342 kts 264°
2026-05-05 21:27 45.55262 4.82476 11093 ft 358 kts 265°
2026-05-05 21:27 45.55133 4.80069 11508 ft 362 kts 266°
2026-05-05 21:27 45.54959 4.76512 12170 ft 367 kts 266°
2026-05-05 21:28 45.54783 4.72806 12843 ft 371 kts 266°
2026-05-05 21:28 45.54600 4.69123 13527 ft 374 kts 266°
2026-05-05 21:28 45.54405 4.65400 14219 ft 378 kts 265°
2026-05-05 21:28 45.54205 4.61691 14875 ft 381 kts 265°
2026-05-05 21:29 45.53996 4.57901 15499 ft 385 kts 265°
2026-05-05 21:29 45.53780 4.54069 16105 ft 389 kts 265°
2026-05-05 21:29 45.53557 4.50208 16702 ft 393 kts 265°
2026-05-05 21:29 45.53330 4.46304 17271 ft 397 kts 265°
2026-05-05 21:30 45.53100 4.42352 17852 ft 401 kts 265°
2026-05-05 21:30 45.52870 4.38363 18437 ft 405 kts 265°
2026-05-05 21:30 45.52641 4.34344 19050 ft 408 kts 265°
2026-05-05 21:30 45.52228 4.30328 19651 ft 411 kts 256°
2026-05-05 21:31 45.51318 4.26452 20247 ft 415 kts 246°
2026-05-05 21:31 45.49913 4.22847 20799 ft 418 kts 235°
2026-05-05 21:31 45.48212 4.19470 21349 ft 421 kts 234°
2026-05-05 21:31 45.46492 4.16061 21839 ft 425 kts 234°
2026-05-05 21:32 45.44767 4.12631 22315 ft 428 kts 234°
2026-05-05 21:32 45.43022 4.09166 22778 ft 432 kts 234°
2026-05-05 21:32 45.41269 4.05681 23218 ft 435 kts 234°
2026-05-05 21:32 45.39498 4.02162 23643 ft 439 kts 234°
2026-05-05 21:33 45.37715 3.98629 24089 ft 442 kts 234°
2026-05-05 21:33 45.35920 3.95077 24519 ft 445 kts 234°
2026-05-05 21:33 45.34103 3.91487 24945 ft 447 kts 234°
2026-05-05 21:33 45.32280 3.87888 25353 ft 450 kts 234°
2026-05-05 21:34 45.30441 3.84263 25757 ft 453 kts 234°
2026-05-05 21:34 45.28589 3.80630 26137 ft 456 kts 234°
2026-05-05 21:34 45.26723 3.76976 26505 ft 459 kts 234°
2026-05-05 21:34 45.24848 3.73291 26872 ft 461 kts 234°
2026-05-05 21:35 45.22997 3.69583 27357 ft 460 kts 235°
2026-05-05 21:35 45.21172 3.65864 27873 ft 459 kts 235°
2026-05-05 21:35 45.19362 3.62148 28370 ft 458 kts 235°
2026-05-05 21:35 45.17574 3.58483 28880 ft 456 kts 235°
2026-05-05 21:36 45.15769 3.54801 29404 ft 454 kts 235°
2026-05-05 21:36 45.13965 3.51146 29913 ft 453 kts 235°
2026-05-05 21:36 45.12156 3.47495 30409 ft 451 kts 235°
2026-05-05 21:36 45.10356 3.43865 30864 ft 451 kts 235°
2026-05-05 21:37 45.08553 3.40233 31288 ft 451 kts 235°
2026-05-05 21:37 45.06748 3.36602 31704 ft 451 kts 235°
2026-05-05 21:37 45.04948 3.32984 32135 ft 451 kts 235°
2026-05-05 21:37 45.03136 3.29352 32544 ft 450 kts 235°
2026-05-05 21:38 45.01330 3.25739 32952 ft 450 kts 235°
2026-05-05 21:38 44.99522 3.22129 33405 ft 449 kts 235°
2026-05-05 21:38 44.97723 3.18542 33873 ft 447 kts 234°
2026-05-05 21:38 44.95927 3.14966 34321 ft 446 kts 234°
2026-05-05 21:39 44.92303 3.07752 34026 ft 456 kts 235°
2026-05-05 21:39 44.90464 3.04087 33764 ft 458 kts 235°
2026-05-05 21:39 44.88617 3.00412 33526 ft 460 kts 234°
2026-05-05 21:40 44.86761 2.96731 33276 ft 460 kts 234°
2026-05-05 21:40 44.84903 2.93051 33025 ft 461 kts 234°
2026-05-05 21:40 44.83073 2.89326 32776 ft 462 kts 236°
2026-05-05 21:40 44.81307 2.85549 32526 ft 463 kts 237°
2026-05-05 21:41 44.79576 2.81725 32278 ft 464 kts 238°
2026-05-05 21:41 44.77876 2.77920 32031 ft 464 kts 238°
2026-05-05 21:41 44.76152 2.74082 31782 ft 464 kts 238°
2026-05-05 21:41 44.74389 2.70204 31530 ft 464 kts 237°
2026-05-05 21:42 44.72658 2.66444 31283 ft 464 kts 237°
2026-05-05 21:42 44.70892 2.62649 31034 ft 465 kts 237°
2026-05-05 21:42 44.69036 2.58937 30778 ft 464 kts 229°
2026-05-05 21:42 44.66663 2.55886 30536 ft 463 kts 215°
2026-05-05 21:43 44.63967 2.53390 30283 ft 465 kts 213°
2026-05-05 21:43 44.61243 2.50924 30035 ft 466 kts 213°
2026-05-05 21:43 44.58515 2.48478 29782 ft 466 kts 213°
2026-05-05 21:43 44.55776 2.46033 29532 ft 467 kts 212°
2026-05-05 21:44 44.53036 2.43590 29282 ft 467 kts 212°
2026-05-05 21:44 44.50288 2.41139 29030 ft 467 kts 213°
2026-05-05 21:44 44.47549 2.38697 28780 ft 468 kts 213°
2026-05-05 21:44 44.44798 2.36246 28525 ft 469 kts 212°
2026-05-05 21:45 44.42047 2.33797 28027 ft 467 kts 213°
2026-05-05 21:45 44.39287 2.31338 26778 ft 473 kts 213°
2026-05-05 21:45 44.36502 2.28858 25516 ft 477 kts 213°
2026-05-05 21:45 44.33701 2.26365 24539 ft 474 kts 213°
2026-05-05 21:46 44.30973 2.23942 23752 ft 467 kts 212°
2026-05-05 21:46 44.28253 2.21529 22917 ft 462 kts 212°
2026-05-05 21:46 44.25554 2.19140 22093 ft 457 kts 212°
2026-05-05 21:46 44.22883 2.16779 21293 ft 451 kts 212°
2026-05-05 21:47 44.20243 2.14447 20494 ft 446 kts 212°
2026-05-05 21:47 44.17635 2.12142 19697 ft 441 kts 212°
2026-05-05 21:47 44.15055 2.09863 18913 ft 436 kts 212°
2026-05-05 21:47 44.12504 2.07612 18140 ft 431 kts 212°
2026-05-05 21:48 44.09991 2.05397 17397 ft 426 kts 212°
2026-05-05 21:48 44.07500 2.03207 16690 ft 421 kts 212°
2026-05-05 21:48 44.05034 2.01044 16000 ft 417 kts 212°
2026-05-05 21:48 44.02595 1.98905 15345 ft 412 kts 212°
2026-05-05 21:49 44.00177 1.96787 14705 ft 409 kts 212°
2026-05-05 21:49 43.97777 1.94685 14064 ft 406 kts 212°
2026-05-05 21:49 43.95419 1.92625 13426 ft 403 kts 212°
2026-05-05 21:49 43.93060 1.90568 12757 ft 400 kts 212°
2026-05-05 21:50 43.90713 1.88521 12101 ft 396 kts 212°
2026-05-05 21:50 43.88390 1.86495 11419 ft 393 kts 212°
2026-05-05 21:50 43.86109 1.84507 11073 ft 380 kts 212°
2026-05-05 21:50 43.83919 1.82600 10936 ft 362 kts 212°
2026-05-05 21:51 43.81840 1.80789 10814 ft 345 kts 212°
2026-05-05 21:51 43.79845 1.79052 10689 ft 331 kts 212°
2026-05-05 21:51 43.77933 1.77388 10556 ft 318 kts 212°
2026-05-05 21:51 43.76087 1.75783 10439 ft 307 kts 212°
2026-05-05 21:52 43.72598 1.72755 10224 ft 285 kts 212°
2026-05-05 21:52 43.70941 1.71322 10104 ft 276 kts 212°
2026-05-05 21:52 43.69336 1.69936 9976 ft 268 kts 212°
2026-05-05 21:53 43.67718 1.68655 9656 ft 267 kts 201°
2026-05-05 21:53 43.65939 1.68187 9579 ft 256 kts 178°
2026-05-05 21:53 43.64243 1.68695 9482 ft 247 kts 155°
2026-05-05 21:53 43.62863 1.70044 9290 ft 242 kts 133°
2026-05-05 21:54 43.61741 1.71744 9060 ft 240 kts 132°
2026-05-05 21:54 43.60622 1.73458 8999 ft 241 kts 132°
2026-05-05 21:54 43.59501 1.75182 8945 ft 241 kts 132°
2026-05-05 21:54 43.58379 1.76903 8887 ft 241 kts 132°
2026-05-05 21:55 43.57256 1.78619 8838 ft 241 kts 132°
2026-05-05 21:55 43.56133 1.80330 8785 ft 241 kts 132°
2026-05-05 21:55 43.55008 1.82039 8730 ft 241 kts 132°
2026-05-05 21:55 43.53737 1.83504 8676 ft 239 kts 155°
2026-05-05 21:56 43.52138 1.84025 8620 ft 238 kts 183°
2026-05-05 21:56 43.50557 1.83465 8564 ft 236 kts 211°
2026-05-05 21:56 43.49345 1.81976 8515 ft 235 kts 238°
2026-05-05 21:56 43.48759 1.79891 8429 ft 235 kts 264°
2026-05-05 21:57 43.48605 1.77655 8274 ft 235 kts 256°
2026-05-05 21:57 43.47836 1.75714 8122 ft 234 kts 223°
2026-05-05 21:57 43.46442 1.74630 7833 ft 232 kts 191°
2026-05-05 21:57 43.44853 1.74748 7490 ft 231 kts 158°
2026-05-05 21:58 43.43465 1.75795 7280 ft 225 kts 147°
2026-05-05 21:58 43.42175 1.77002 6981 ft 224 kts 145°
2026-05-05 21:58 43.40903 1.78227 6677 ft 223 kts 145°
2026-05-05 21:58 43.39638 1.79453 6366 ft 222 kts 145°
2026-05-05 21:59 43.38380 1.80674 6066 ft 221 kts 145°
2026-05-05 21:59 43.37128 1.81891 5762 ft 220 kts 145°
2026-05-05 21:59 43.35884 1.83100 5461 ft 219 kts 145°
2026-05-05 21:59 43.34644 1.84305 5159 ft 218 kts 145°
2026-05-05 22:00 43.33407 1.85506 4859 ft 217 kts 145°
2026-05-05 22:00 43.32179 1.86700 4562 ft 216 kts 145°
2026-05-05 22:00 43.30956 1.87888 4255 ft 215 kts 145°
2026-05-05 22:00 43.29720 1.89033 3957 ft 214 kts 155°
2026-05-05 22:01 43.28314 1.89371 3656 ft 209 kts 191°
2026-05-05 22:01 43.27182 1.88522 3941 ft 157 kts 238°
2026-05-05 22:01 43.26912 1.87288 3930 ft 138 kts 280°
2026-05-05 22:01 43.27484 1.86096 3297 ft 162 kts 334°
2026-05-05 22:02 43.28510 1.86001 3572 ft 149 kts 26°
2026-05-05 22:02 43.29177 1.86971 4087 ft 140 kts 73°
2026-05-05 22:02 43.29551 1.88221 4345 ft 149 kts 53°
2026-05-05 22:02 43.30535 1.88964 4140 ft 188 kts
2026-05-05 22:03 43.31771 1.88355 3614 ft 199 kts 314°
2026-05-05 22:03 43.32347 1.86622 3185 ft 203 kts 279°
2026-05-05 22:03 43.32584 1.84711 3057 ft 204 kts 279°
2026-05-05 22:03 43.32822 1.82796 3079 ft 202 kts 279°
2026-05-05 22:04 43.33051 1.80941 3066 ft 192 kts 279°
2026-05-05 22:04 43.33272 1.79151 3067 ft 189 kts 279°
2026-05-05 22:04 43.33506 1.77411 3058 ft 179 kts 286°
2026-05-05 22:04 43.34024 1.75893 3064 ft 174 kts 305°
2026-05-05 22:05 43.34768 1.74592 3066 ft 172 kts 308°
2026-05-05 22:05 43.35509 1.73302 3069 ft 172 kts 308°
2026-05-05 22:05 43.36248 1.72012 3069 ft 172 kts 308°
2026-05-05 22:05 43.36986 1.70720 3066 ft 172 kts 308°
2026-05-05 22:06 43.37722 1.69427 3067 ft 172 kts 307°
2026-05-05 22:06 43.38457 1.68133 3069 ft 172 kts 307°
2026-05-05 22:06 43.39194 1.66842 3071 ft 172 kts 308°
2026-05-05 22:06 43.39932 1.65548 3071 ft 172 kts 307°
2026-05-05 22:07 43.40658 1.64273 3079 ft 172 kts 307°
2026-05-05 22:07 43.41395 1.62979 3068 ft 172 kts 307°
2026-05-05 22:07 43.42131 1.61684 3071 ft 172 kts 307°
2026-05-05 22:07 43.42866 1.60387 3068 ft 172 kts 307°
2026-05-05 22:08 43.43599 1.59094 3068 ft 172 kts 307°
2026-05-05 22:08 43.44336 1.57800 3070 ft 172 kts 307°
2026-05-05 22:08 43.45072 1.56505 3071 ft 172 kts 307°
2026-05-05 22:08 43.45807 1.55207 3070 ft 172 kts 307°
2026-05-05 22:09 43.46542 1.53909 3076 ft 172 kts 307°
2026-05-05 22:09 43.47295 1.52633 3064 ft 172 kts 314°
2026-05-05 22:09 43.48182 1.51527 3067 ft 172 kts 320°
2026-05-05 22:09 43.49118 1.50497 3071 ft 172 kts 321°
2026-05-05 22:10 43.50066 1.49494 3078 ft 172 kts 322°
2026-05-05 22:10 43.51024 1.48496 3044 ft 173 kts 322°
2026-05-05 22:10 43.51980 1.47503 2889 ft 172 kts 322°
2026-05-05 22:10 43.52526 1.46938 2776 ft 171 kts 322°
2026-05-05 22:11 43.52686 1.46773 2742 ft 171 kts 322°
2026-05-05 22:11 43.53635 1.45789 2527 ft 170 kts 322°
2026-05-05 22:11 43.54580 1.44809 2303 ft 170 kts 322°
2026-05-05 22:12 43.55205 1.44161 2150 ft 169 kts 322°
2026-05-05 22:12 43.56143 1.43188 1931 ft 169 kts 322°
2026-05-05 22:12 43.57074 1.42210 1711 ft 168 kts 322°
2026-05-05 22:12 43.58000 1.41232 1502 ft 167 kts 323°
2026-05-05 22:13 43.58945 1.40290 1269 ft 167 kts 324°
2026-05-05 22:13 43.59882 1.39360 1045 ft 166 kts 322°
2026-05-05 22:13 43.60787 1.38366 869 ft 166 kts 321°
2026-05-05 22:13 43.61710 1.37404 658 ft 166 kts 323°
2026-05-05 22:14 43.62609 1.36471 494 ft 130 kts 322°
2026-05-05 22:14 43.63091 1.35974 490 ft 44 kts 322°
2026-05-05 22:14 43.63154 1.35907 487 ft 2 kts 324°
2026-05-05 22:14 43.63208 1.35851 491 ft 13 kts 322°
2026-05-05 22:15 43.52752 1.46705 2619 ft 171 kts 323°
2026-05-05 22:15 43.53643 1.45846 1735 ft 207 kts 326°